Tracking 35275 objects as of 9-Sep-2026
HD Live streaming from Space Station
objects crossing your sky now

STARLINK-33712

Track STARLINK-33712 now!
10-day predictions
STARLINK-33712 is classified as:


NORAD ID: 63797
Int'l Code: 2025-091Y
Launch date: May 2, 2025
Source: United States (US)
Launch site: AIR FORCE EASTERN TEST RANGE (AFETR)
Your satellite tracking list
Your tracking list is empty




NASA's NSSDC Master Catalog

Two Line Element Set (TLE):
1 63797U 25091Y   26251.00511863  .00019848  00000-0  72834-3 0  9996
2 63797  43.0028 106.5439 0001428 298.8450  61.2259 15.27603015 76749
Source of the keplerian elements: AFSPC